Location: Carnoy
(49.9849°N, 2.7558°E)
Time: 18:44:14
(UTC+00:00)

Nadezhda 3 Rocket - Pass Details

Date: 24 January 2020
Orbit: 957 x 999 km, 82.9° (Epoch: 15 February)

Event Time Altitude Azimuth Distance (km) Brightness Sun altitude
Rises 16:56:26 0° 351° (N) 3,691 6.9 -4.8°
Reaches altitude 10° 16:58:58 10° 353° (N) 2,745 6.2 -5.1°
Maximum altitude 17:05:16 74° 79° (E) 1,032 4.0 -6.1°
Drops below altitude 10° 17:11:35 10° 164° (SSE) 2,752 6.5 -7.0°
Sets 17:14:07 0° 166° (SSE) 3,701 7.1 -7.4°
